Regional Weather Roundup
Issued by NWS

Home | Current Version | Previous Version | Graphics & Text | Print | Product List | Glossary On
Versions: 1 2 3 4 5 6 7 8 9 10 11 12 13 14 15 16 17 18 19 20 21 22 23 24 25 26 27 28 29 30 31 32 33 34 35 36 37 38 39 40 41 42 43 44 45 46 47 48 49 50
474
ASUS44 KLIX 200901
RWRLA
LOUISIANA WEATHER ROUNDUP
NATIONAL WEATHER SERVICE NEW ORLEANS LA
300 AM CST THU NOV 20 2014

NOTE: "FAIR" INDICATES FEW OR NO CLOUDS BELOW 12,000 FEET WITH NO
      SIGNIFICANT WEATHER AND/OR OBSTRUCTIONS TO VISIBILITY.
      SKY/WX - SKY CONDITION AND SIGNIFICANT WEATHER.
      TMP - AIR TEMPERATURE.    DP   - DEWPOINT TEMPERATURE.
      RH  - RELATIVE HUMIDITY.  PRES - PRESSURE.
      HX  - HEAT INDEX.         WCI  - WIND CHILL INDEX.

*  THESE STATIONS ARE NOT NWS OR FAA STATIONS AND ARE NOT UNDER
   NWS QUALITY CONTROL.

LAZ040-048-061>063-065-066-069-201000-
SOUTHEAST LOUISIANA

CITY           SKY/WX    TMP DP  RH WIND       PRES   REMARKS
N.O. AUDUBON     N/A     51  44  76 MISG        N/A
N.O. INTL ARPT CLEAR     45  41  86 S5        30.27S
N.O. LAKEFRONT CLEAR     47  41  80 S7        30.28S
N.O. DOWNTOWN* FAIR      52  39  62 S6        30.28R
SLIDELL        CLEAR     34  31  88 CALM      30.27F
BATON ROUGE    CLEAR     38  36  92 NE3       30.26S
BOOTHVILLE     CLEAR     52  47  83 E3        30.28F
BELLE CHASSE   CLEAR     41  38  89 CALM      30.27S
BOGALUSA*        N/A     35  32  90 CALM      30.29S
NEW ROADS*     FAIR      39  38  97 NE3       30.26S FOG
GONZALES*      NOT AVBL
HAMMOND*       CLEAR     36  34  93 CALM      30.28S
HOUMA*         CLEAR     38  38 100 CALM      30.26F FOG
PORT FOURCHON* SUNNY     59  48  67 S3        30.29F

$$

LAZ041-044-053-054-201000-
SOUTHWEST LOUISIANA

CITY           SKY/WX    TMP DP  RH WIND       PRES   REMARKS
LAKE CHARLES   CLEAR     48  47  96 E5        30.21F
LAFAYETTE      CLEAR     44  42  93 CALM      30.24F
PATTERSON      CLEAR     45  43  93 NE3       30.27F
SALT POINT       N/A     48  46  93 E3        30.24F
NEW IBERIA     CLEAR     44  42  93 SE6       30.24F
CHENAULT AIRPK NOT AVBL

$$

LAZ027-028-201000-
CENTRAL LOUISIANA

CITY           SKY/WX    TMP DP  RH WIND       PRES   REMARKS
FORT POLK      PTCLDY    47  46  97 SE3       30.21F
ALEXANDRIA INT MOCLDY    44  42  93 CALM      30.22S
ALEXANDRIA     PTCLDY    37  35  92 CALM      30.24S

$$

LAZ001-002-201000-
NORTHWEST LOUISIANA

CITY           SKY/WX    TMP DP  RH WIND       PRES   REMARKS
SHREVEPORT     FOG       42  42 100 CALM      30.18S VSB 1/2
BARKSDALE AFB  CLEAR     41  41 100 S6        30.19S FOG
DTN SHREVEPORT CLEAR     46  43  89 SE5       30.20R

$$

LAZ014-016-201000-
NORTHEAST LOUISIANA

CITY           SKY/WX    TMP DP  RH WIND       PRES   REMARKS
MONROE         MOCLDY    43  40  89 S3        30.24S
TALLULAH       CLEAR     38  32  79 SE3       30.24F

$$




USA.gov is the U.S. government's official web portal to all federal, state and local government web resources and services.